Simultaneous Nadir Overpasses (SNOs) Predictions

Prediction of SNOs between NPP and TERRA Satellite Orbit:

Table of predicted SNOs for the next 14.0 days since TLE Epoch: 12/8/2012
Index Date (NPP) Time (NPP) Lat,Lon (NPP) SZA (NPP ) Date (TERRA) Time (TERRA) Lat,Lon (TERRA) SZA (TERRA ) Distance(km) Time Diff (sec)
1 12/09/2012 11:28:15 69.18, 5.01 91.95 12/09/2012 11:29:22 69.06, 7.16 91.83 86.07 67
2 12/09/2012 12:18:40 -68.19, 173.66 89.05 12/09/2012 12:19:06 -68.17, 173.69 89.08 2.94 26
3 12/09/2012 13:09:23 68.00, -18.80 90.77 12/09/2012 13:08:34 68.00, -18.86 90.77 2.25 49
4 12/12/2012 03:44:54 68.32, 121.94 91.30 12/12/2012 03:46:05 68.28, 122.07 91.26 7.22 71
5 12/12/2012 04:35:34 -68.13, -70.50 88.89 12/12/2012 04:35:36 -68.11, -70.49 88.91 2.15 2
6 12/12/2012 05:26:17 67.95, 97.04 90.94 12/12/2012 05:25:04 67.95, 96.96 90.93 3.24 73
7 12/14/2012 20:01:47 68.21,-122.14 91.36 12/14/2012 20:02:35 68.22,-122.12 91.36 1.18 48
8 12/14/2012 20:52:28 -68.08, 45.34 88.78 12/14/2012 20:52:06 -68.05, 45.32 88.80 2.49 22
9 12/14/2012 21:42:55 67.02,-146.08 90.17 12/14/2012 21:41:48 67.10,-148.11 90.25 88.33 67
10 12/17/2012 11:28:14 -69.24,-175.06 87.49 12/17/2012 11:29:21 -69.15,-172.72 87.60 92.92 67
11 12/17/2012 12:18:40 68.15, -6.30 91.41 12/17/2012 12:19:04 68.14, -6.32 91.40 1.29 24
12 12/17/2012 13:09:21 -68.02, 161.19 88.73 12/17/2012 13:08:34 -68.04, 161.19 88.70 2.91 47
13 12/20/2012 03:44:53 -68.38, -58.12
